This demonstration page uses our WeatherBlox Daily Observations layout. Learn more.

Left ArrowRight Arrow

Hourly Observations for October 26, 2021

Temp ( °F °C ) Dew Point ( °F °C ) Humidity (%) Winds ( mph kmh ) Pressure ( in mb ) Visibility ( mi km ) Precip ( " mm )
12:53 am 00:53 Cloudy 44 6.7 40 4.4 85 85 WSW 9 15 29.57 1002 10 16 N/A
1:53 am 01:53 Cloudy 42 5.6 38 3.3 85 85 WSW 7 11 29.59 1002 10 16 N/A
2:53 am 02:53 Clear 41 5 36 2.2 82 82 SW 7 11 29.58 1002 10 16 N/A
3:53 am 03:53 Clear 38 3.3 34 1.1 86 86 SW 9 15 29.59 1002 10 16 N/A
4:53 am 04:53 Clear 40 4.4 34 1.1 79 79 SW 12 19 29.62 1003 10 16 N/A
5:53 am 05:53 Clear 42 5.6 34 1.1 73 73 WSW 15 24 29.62 1003 10 16 N/A
6:53 am 06:53 Clear 40 4.4 34 1.1 79 79 SW 8 13 29.62 1003 10 16 N/A
7:53 am 07:53 Clear 39 3.9 33 0.6 79 79 SW 7 11 29.61 1003 10 16 N/A
8:53 am 08:53 Sunny 40 4.4 34 1.1 79 79 SW 13 20 29.63 1004 10 16 N/A
9:53 am 09:53 Sunny 44 6.7 35 1.7 71 71 SW 17 28 29.64 1004 10 16 N/A
10:53 am 10:53 Sunny 46 7.8 34 1.1 63 63 SW 17 28 29.64 1004 10 16 N/A
11:53 am 11:53 Sunny 49 9.4 35 1.7 59 59 SW 15 24 29.64 1004 10 16 N/A
12:53 pm 12:53 Sunny 55 12.8 33 0.6 44 44 WSW 20 31 29.63 1003 10 16 N/A
1:53 pm 13:53 Sunny 57 13.9 30 -1.1 36 36 W 25 41 29.62 1003 10 16 N/A
2:53 pm 14:53 Sunny 60 15.6 28 -2.2 30 30 WSW 24 39 29.61 1003 10 16 N/A
3:53 pm 15:53 Sunny 60 15.6 28 -2.2 30 30 W 20 31 29.62 1003 10 16 N/A
4:53 pm 16:53 Sunny 59 15 28 -2.2 31 31 W 25 41 29.64 1004 10 16 N/A
5:53 pm 17:53 Sunny 54 12.2 26 -3.3 34 34 W 21 33 29.67 1005 10 16 N/A
6:53 pm 18:53 Clear 50 10 25 -3.9 38 38 W 18 30 29.70 1006 10 16 N/A
7:53 pm 19:53 Clear 48 8.9 25 -3.9 41 41 W 15 24 29.70 1006 10 16 N/A
8:53 pm 20:53 Clear 41 5 25 -3.9 53 53 SSW 7 11 29.72 1007 10 16 N/A
9:53 pm 21:53 Clear 39 3.9 25 -3.9 57 57 SW 5 7 29.74 1007 10 16 N/A
10:53 pm 22:53 Clear 34 1.1 23 -5 64 64 WSW 9 15 29.75 1008 10 16 N/A
11:53 pm 23:53 Clear 41 5 25 -3.9 53 53 SW 13 20 29.74 1007 10 16 N/A

Powered by AerisWeather